Location: Unspecified
(0.0000°N, 0.0000°E)
Time: 08:28:47
(UTC+00:00)

ATLAS 5 CENTAUR DEB - Visible Passes

Search period start: 20 January 2026 00:00
Search period end: 30 January 2026 00:00
Orbit: 9368 x 36016 km, 20.9° (Epoch: 13 November)

Date Brightness Start Highest point End Pass type
(mag) Time Alt. Az. Time Alt. Az. Time Alt. Az.
20 Jan ? 12:28:49 10° WNW 21:30:29 56° SE 01:26:06 10° E visible
21 Jan ? 16:41:38 10° WNW 19:22:21 72° W 05:42:54 10° ENE daylight
22 Jan ? 22:06:48 10° W 23:13:22 13° W 00:47:31 10° WSW visible
24 Jan ? 12:26:14 10° WNW 21:21:00 58° SE 01:24:18 10° E visible
25 Jan ? 16:39:01 10° WNW 19:19:05 69° W 05:39:53 10° ENE daylight
26 Jan ? 22:34:49 10° W 23:08:54 11° W 23:48:56 10° W visible
27 Jan ? 17:23:04 10° ESE 18:13:31 11° ESE 18:57:14 10° ESE visible
28 Jan ? 12:23:34 10° WNW 21:09:27 59° SE 01:22:22 10° E visible
